Zurück zum Katalog

USA 28

AktivNavigationGEO
NORAD 18583·PAYLOAD·🇺🇸 United States

Gestartet Nov 29, 1987 von Cape Canaveral Space Force Station

Loading…

TLE

AktuellSource: Space-Track

Epoche: Sep 14, 2026, 06:27 UTC

1 18583U 87097A   26257.26875156 -.00000045  00000-0  00000-0 0  9998
2 18583  11.9785 337.8517 0027321 279.8154 104.7770  0.98386410 25601

Verfolge USA 28 in Echtzeit mit AllMySat

Download on the App Store